Theta_e
290 290 290 291 291 291 291 291 292 293 293 293 293 294 294 295 295 296 296 297 298 298 298 298 298 298 297 297 297 297 297 298 298 298 298 298 297 297 296 296 296 296
287 287 287 288 288 288 288 289 289 289 290 290 291 291 292 293 294 294 295 295 296 296 297 297 297 297 297 297 297 296 297 297 297 297 297 297 297 297 296 296 296 296
286 286 286 286 286 286 286 286 286 287 287 287 287 288 288 289 290 291 293 293 294 295 295 295 295 295 295 296 296 296 296 296 296 296 296 297 297 297 297 296 296 296
286 286 286 286 286 285 285 285 285 286 286 286 286 286 286 286 287 288 289 290 291 292 293 294 294 294 294 294 295 295 295 295 295 295 295 296 296 296 296 296 296 295
286 286 286 286 286 286 286 286 286 286 286 286 286 286 286 285 286 286 286 286 287 288 289 291 292 293 293 293 293 294 294 294 294 295 295 295 295 295 295 295 295 295
287 287 287 287 287 287 287 287 287 287 287 287 287 287 286 286 286 286 286 286 286 286 286 287 288 289 291 292 292 292 293 293 293 294 294 294 294 294 294 295 295 295
287 287 287 287 287 287 287 287 287 287 288 287 287 287 287 287 287 287 286 286 286 286 286 285 286 286 287 288 290 291 292 292 292 293 293 294 294 294 294 294 294 294
287 287 287 287 287 287 287 287 287 287 287 287 287 287 287 287 287 287 287 287 287 286 286 286 286 286 285 285 286 287 289 290 291 291 292 292 293 293 293 293 294 293
287 287 287 287 287 287 287 287 287 287 287 287 287 287 287 287 287 287 287 287 287 287 287 286 286 286 286 285 285 285 286 287 288 289 290 291 291 291 292 292 293 293
287 287 287 287 287 286 286 286 286 286 286 286 286 286 286 286 286 286 286 286 286 286 286 286 286 286 286 286 286 286 285 285 285 286 287 289 290 290 290 291 291 292
287 287 287 287 286 286 286 286 286 286 286 286 286 286 285 285 286 286 285 286 285 285 285 286 286 286 286 286 286 286 286 285 285 285 285 286 287 288 289 290 290 290
287 287 287 286 286 286 286 286 286 285 285 285 285 285 285 285 285 285 285 285 285 285 285 285 285 285 285 285 286 286 286 286 286 285 285 285 285 285 287 288 289 289
287 286 286 286 286 286 286 285 285 285 285 285 285 285 285 285 285 285 285 284 284 284 284 284 284 284 284 284 285 285 285 285 285 285 285 285 285 285 285 285 286 287
286 286 285 285 285 285 285 284 284 284 284 284 284 284 284 284 284 284 284 284 284 284 284 284 284 284 284 284 284 284 284 285 285 285 285 285 285 285 285 285 285 285
285 285 285 284 284 284 283 283 283 284 284 283 283 283 283 283 283 283 283 283 283 283 283 283 283 283 283 283 283 283 284 284 284 285 285 285 285 285 285 285 285 285
284 284 283 283 283 282 282 283 283 282 282 282 282 282 282 282 283 283 283 283 283 283 283 283 282 282 282 282 282 283 284 284 284 284 285 285 285 285 285 285 285 285
283 282 282 281 281 281 281 281 281 281 280 280 280 280 281 281 281 282 282 282 282 282 282 282 281 281 282 282 282 283 284 284 284 284 285 285 285 285 285 285 285 285
280 280 280 280 279 279 279 279 279 279 278 278 278 278 278 278 279 279 280 280 280 280 280 280 280 281 281 281 282 283 283 283 284 284 285 285 285 285 285 285 285 285
277 278 277 278 277 277 277 277 277 276 276 276 276 276 276 276 276 277 277 278 278 279 279 279 279 279 280 281 281 282 282 283 283 283 284 284 284 284 284 285 285 285
275 275 275 275 275 274 274 274 274 274 274 274 274 274 274 275 275 275 275 275 276 276 277 277 277 278 279 279 280 281 281 282 282 282 283 283 283 284 284 284 284 284
273 273 272 272 272 271 271 271 271 271 271 271 271 272 272 272 272 272 272 272 273 273 274 274 275 276 277 278 278 279 280 280 281 281 281 282 282 282 283 283 283 284
271 270 270 269 269 269 268 268 268 268 268 268 268 268 268 268 269 269 269 269 270 270 271 271 272 273 274 275 276 277 278 279 279 279 280 280 280 281 281 282 282 283
268 268 267 267 267 266 266 266 266 266 266 266 266 266 266 266 266 267 267 267 267 268 269 269 270 271 272 273 274 275 276 276 277 278 278 279 279 280 280 281 281 282
266 266 265 265 265 265 264 264 264 264 264 264 264 264 264 264 265 265 265 265 266 266 267 267 267 268 269 270 271 272 273 274 275 276 277 277 278 278 279 279 279 280
265 265 264 264 264 263 263 263 263 263 263 263 263 263 263 263 263 263 264 264 264 265 265 265 265 265 266 268 269 270 271 272 273 274 275 276 276 277 277 277 278 278
264 264 263 263 263 263 262 262 262 262 262 262 262 262 262 262 262 263 263 263 263 263 263 264 264 265 265 267 268 269 270 271 272 273 274 275 275 276 276 276 277 277
Wind_Speed
27 27 26 25 25 24 24 24 23 22 22 21 20 20 18 17 15 13 12 10 10 10 11 12 13 14 16 16 17 18 19 20 22 24 26 28 28 28 29 31 33 35
26 26 26 25 25 24 24 24 24 24 24 23 23 22 21 20 18 16 14 12 11 10 11 12 13 15 16 17 17 18 19 20 21 22 24 27 28 29 29 29 30 33
26 25 25 25 24 24 23 23 23 24 24 24 24 24 24 23 22 20 17 15 14 13 13 13 14 14 15 16 17 18 19 20 21 21 23 26 27 29 29 29 30 30
24 24 24 23 23 23 23 24 24 24 24 24 24 23 24 24 24 23 22 20 18 17 15 15 14 15 15 16 17 18 19 20 21 21 23 25 26 28 29 29 30 30
21 21 21 21 21 22 23 25 26 26 26 26 25 25 24 24 24 24 24 23 22 21 19 17 16 15 15 16 17 18 19 20 21 21 23 25 26 27 28 28 29 30
17 19 20 21 21 22 23 25 26 27 27 27 27 28 28 27 27 26 26 25 24 23 22 21 20 19 17 17 17 18 19 20 21 21 24 26 26 26 27 27 29 30
12 15 17 18 20 21 23 24 25 26 27 27 28 28 29 30 30 30 30 29 27 25 24 22 22 21 21 20 19 19 19 20 21 22 23 25 26 27 27 27 28 30
9 10 13 15 16 18 20 22 23 25 26 27 28 29 29 29 30 31 31 31 31 30 28 26 25 23 22 21 21 22 21 21 22 22 24 25 26 27 27 27 28 29
9 9 11 13 14 16 17 19 20 22 24 25 27 29 30 31 31 31 31 31 32 32 31 30 29 27 25 23 22 22 22 22 23 23 25 26 26 27 27 28 29 30
12 12 13 16 17 18 19 20 21 22 23 24 25 27 29 31 31 31 31 31 32 32 31 31 31 30 29 28 26 25 24 23 23 23 24 26 26 27 27 27 28 30
15 15 17 19 20 21 23 24 25 26 27 27 27 28 29 30 31 31 31 31 32 32 32 32 31 30 30 30 30 30 28 27 25 24 24 25 26 26 27 27 28 29
15 16 18 19 21 24 26 27 28 29 29 29 29 29 30 31 31 31 30 31 31 31 32 32 32 31 31 32 32 32 32 31 29 28 27 26 26 26 26 27 27 29
16 17 18 19 22 24 26 28 29 29 29 30 30 30 32 32 32 33 32 32 33 32 32 32 32 32 33 33 34 34 34 34 33 32 31 30 29 28 27 27 27 28
20 22 23 24 25 26 26 26 26 27 27 28 29 30 31 32 32 32 33 34 34 34 33 32 31 31 32 32 33 34 34 35 35 35 34 33 32 30 29 28 28 28
24 27 29 30 31 30 30 29 29 29 28 28 28 29 30 31 31 31 32 33 33 33 34 33 32 32 32 32 32 33 34 35 36 36 36 36 35 34 33 31 30 30
29 31 32 33 33 32 32 32 31 31 31 30 31 31 31 31 31 31 31 31 32 32 32 32 33 34 35 35 34 32 33 34 36 37 37 37 37 37 37 36 34 33
31 32 33 33 33 33 33 33 33 34 34 34 33 33 33 32 33 33 33 33 32 32 33 33 35 36 37 37 35 32 32 34 35 36 37 38 38 37 38 38 38 37
26 27 29 29 30 31 33 35 37 39 41 40 39 38 37 37 36 36 36 36 35 35 36 37 37 39 38 35 33 32 32 34 36 36 36 37 37 38 39 40 40 39
22 23 25 26 27 30 33 36 38 40 41 41 41 42 42 41 40 39 38 37 36 37 38 39 40 42 41 37 35 34 34 34 35 36 37 38 38 38 39 39 39 40
21 22 24 27 29 31 33 34 35 36 37 37 37 39 40 41 42 42 41 41 40 39 39 41 42 43 41 39 38 38 37 36 36 37 37 39 39 39 38 38 39 39
21 24 26 29 30 30 31 32 32 33 34 34 35 36 38 40 41 43 44 45 44 42 42 43 44 43 41 40 40 40 39 39 38 38 37 38 38 39 39 39 40 40
22 25 27 28 29 30 31 31 31 32 33 33 35 37 39 40 41 41 42 44 45 44 42 45 46 44 40 40 40 40 39 39 38 38 38 38 39 39 40 40 40 41
23 25 27 28 29 30 31 32 32 33 34 33 34 37 39 38 39 40 41 41 42 42 40 42 46 44 40 40 40 39 39 38 37 37 36 37 39 39 39 38 37 38
25 26 27 29 30 30 31 33 33 34 34 33 34 36 38 39 37 39 41 40 38 38 37 39 44 45 41 40 40 39 39 39 37 35 35 36 38 38 39 40 40 40
26 27 28 30 31 31 31 32 34 34 34 34 34 35 38 39 37 37 40 40 36 37 37 38 41 43 40 37 38 37 36 36 36 35 34 35 37 36 37 40 42 43
27 28 29 29 31 32 32 32 33 34 34 34 36 36 37 39 38 37 39 41 37 36 37 37 38 39 37 35 36 36 34 34 35 34 32 33 34 34 34 37 40 42
Wind_Direction
55 54 52 51 50 47 44 41 38 36 31 25 19 12 5 359 353 347 345 346 347 340 327 320 318 316 314 312 308 302 295 290 286 282 278 273 269 265 262 259 256 254
54 53 51 49 48 47 45 44 42 40 36 32 26 20 15 9 4 359 350 342 338 336 332 325 321 319 315 312 310 305 300 295 290 287 284 280 276 272 268 265 262 260
50 49 47 45 44 43 43 43 42 40 37 33 28 23 19 16 14 12 8 359 348 337 330 325 322 320 318 315 312 307 304 299 295 292 289 285 282 278 274 271 268 265
45 43 41 38 36 34 33 34 35 34 32 29 26 21 17 14 13 14 13 11 6 357 348 337 330 327 324 321 317 312 308 304 301 298 292 288 285 282 280 277 274 271
37 35 33 30 27 24 23 23 22 21 19 17 15 12 10 9 8 9 8 8 7 4 1 355 347 339 332 327 322 317 313 308 305 302 296 292 288 285 283 282 279 276
29 26 24 21 18 16 15 15 13 11 9 7 4 1 0 359 359 0 360 360 360 359 359 358 355 350 343 333 326 318 314 311 308 304 298 294 292 290 288 285 282 280
22 18 16 14 12 11 10 9 7 4 2 359 356 354 353 352 351 352 351 350 349 349 350 352 351 350 347 340 332 323 316 311 309 306 300 296 294 292 290 288 284 282
17 7 6 7 7 6 4 2 360 358 355 352 349 348 347 346 345 345 344 342 341 340 340 342 342 343 342 340 336 330 324 317 312 308 304 300 296 293 291 290 287 283
9 357 356 359 359 357 355 353 350 349 347 343 341 340 340 340 340 340 338 336 334 334 333 334 335 335 333 332 330 328 326 322 317 311 307 303 299 296 294 292 289 285
358 353 350 350 351 350 348 346 342 339 337 335 333 332 332 333 334 333 332 330 329 328 328 328 328 328 327 324 323 321 319 317 316 312 307 304 301 299 298 295 290 286
351 347 344 343 342 341 340 337 334 331 329 328 326 325 325 325 326 326 325 323 323 323 322 322 322 322 320 318 317 317 314 311 309 308 304 303 301 300 298 296 292 288
344 341 338 336 333 331 330 328 326 325 323 322 321 320 320 319 319 318 317 316 316 316 316 316 318 317 314 313 311 311 311 307 305 303 301 299 297 297 297 295 292 290
343 339 334 330 326 324 322 320 320 320 319 318 318 316 316 316 316 315 313 312 311 311 310 310 311 310 309 308 307 307 306 304 301 300 298 295 293 292 292 292 291 289
336 332 329 327 324 322 320 318 317 316 315 314 314 313 313 313 312 311 309 308 308 307 306 305 304 302 301 300 301 302 301 299 298 297 295 292 290 287 286 285 285 285
329 327 324 323 322 322 322 321 320 319 317 315 314 312 311 310 309 306 304 303 303 302 302 302 299 297 296 295 294 295 295 293 292 293 292 289 288 287 285 283 281 280
326 324 322 321 321 323 323 323 322 321 320 318 317 316 315 314 312 308 304 302 301 299 298 297 295 293 293 293 292 290 288 287 286 286 287 286 285 284 285 284 282 280
321 319 318 319 321 322 322 321 321 320 319 318 318 317 316 314 312 308 305 303 301 299 297 294 292 291 291 291 289 286 284 283 283 282 281 281 280 280 281 282 282 280
317 315 315 316 317 317 316 315 314 314 315 315 315 315 313 311 308 305 303 301 300 298 296 294 292 291 291 288 286 284 283 283 282 281 280 277 276 277 278 279 279 279
317 316 314 313 313 312 311 311 311 311 311 312 312 312 311 309 307 305 303 301 300 297 296 294 293 292 292 290 289 287 286 284 283 282 280 278 277 275 274 274 275 276
320 317 314 312 312 312 311 311 311 311 310 310 311 309 308 307 306 305 304 302 300 299 297 295 293 293 293 294 293 292 291 289 287 284 281 279 277 275 273 272 271 271
319 316 314 314 314 314 313 312 311 310 309 309 308 306 304 303 302 302 301 300 300 300 299 297 295 294 296 296 296 296 296 294 292 288 285 281 278 276 274 273 272 270
318 316 315 316 315 315 314 313 311 310 308 308 307 304 302 302 301 301 300 300 300 301 301 299 298 298 299 299 298 298 298 298 295 292 288 284 281 279 276 274 272 270
319 318 316 316 317 316 314 313 311 309 308 309 308 305 304 303 302 301 300 300 301 302 303 302 300 300 302 302 301 299 299 299 297 294 290 287 284 282 279 277 274 270
320 319 318 317 317 315 313 311 310 309 308 309 307 304 302 302 302 301 300 300 301 302 304 304 301 302 304 304 302 301 299 297 295 293 290 287 284 283 281 280 279 276
320 319 318 317 315 313 311 309 308 308 307 306 305 302 301 300 301 301 299 300 302 301 302 304 303 303 306 307 305 304 302 298 295 291 288 285 283 282 281 279 278 276
319 317 316 315 312 311 310 309 308 307 306 305 304 302 300 299 300 299 298 299 301 302 302 303 303 304 306 307 307 306 304 301 297 292 288 286 286 284 281 280 278 277